Location: Asheville, NC
(35.6000°N, 82.5500°W)
Time: 04:28:05
(UTC-05:00)

Vanguard 1 - Pass Details

Date: 09 December 2017
Orbit: 649 x 3834 km, 34.3° (Epoch: 17 January)

Event Time Altitude Azimuth Distance (km) Brightness Sun altitude
Rises 16:10:44 0° 282° (WNW) 5,227 14.4 10.5°
Reaches altitude 10° 16:15:03 10° 277° (W) 3,710 13.8 9.8°
Maximum altitude 16:22:57 41° 211° (SSW) 1,428 11.9 8.5°
Drops below altitude 10° 16:27:55 10° 141° (SE) 2,323 12.0 7.7°
Sets 16:30:02 0° 132° (SE) 3,098 12.5 7.3°
